Year,Month,Day,Hour,Minute,Value (Times are PST for temperature in C)
2006,02,18,00,00,1.70
2006,02,18,00,01,1.70
2006,02,18,00,34,1.40
2006,02,18,00,35,1.30
2006,02,18,00,36,1.30
2006,02,18,00,37,1.30
2006,02,18,00,38,1.30
2006,02,18,00,39,1.30
2006,02,18,00,40,1.30
2006,02,18,00,41,1.30
2006,02,18,00,42,1.40
2006,02,18,00,43,1.40
2006,02,18,00,44,1.40
2006,02,18,00,45,1.40
2006,02,18,00,46,1.30
2006,02,18,00,47,1.30
2006,02,18,00,48,1.30
2006,02,18,00,49,1.30
2006,02,18,00,50,1.30
2006,02,18,00,51,1.30
2006,02,18,00,52,1.30
2006,02,18,00,53,1.30
2006,02,18,00,54,1.30
2006,02,18,00,55,1.30
2006,02,18,00,56,1.30
2006,02,18,00,57,1.30
2006,02,18,00,58,1.30
2006,02,18,00,59,1.30
2006,02,18,01,00,1.30
2006,02,18,01,01,1.30
2006,02,18,01,02,1.30
2006,02,18,01,03,1.30
2006,02,18,01,04,1.30
2006,02,18,01,05,1.30
2006,02,18,01,06,1.40
2006,02,18,01,07,1.40
2006,02,18,01,08,1.40
2006,02,18,01,09,1.40
2006,02,18,01,10,1.40
2006,02,18,01,11,1.40
2006,02,18,01,12,1.40
2006,02,18,01,13,1.40
2006,02,18,01,14,1.40
2006,02,18,01,15,1.40
2006,02,18,01,16,1.40
2006,02,18,01,17,1.40
2006,02,18,01,18,1.40
2006,02,18,01,19,1.40
2006,02,18,01,20,1.40
2006,02,18,01,21,1.40
2006,02,18,01,22,1.40
2006,02,18,01,23,1.40
2006,02,18,01,24,1.40
2006,02,18,01,25,1.40
2006,02,18,01,26,1.40
2006,02,18,01,27,1.40
2006,02,18,01,28,1.40
2006,02,18,01,29,1.40
2006,02,18,01,30,1.40
2006,02,18,01,31,1.40
2006,02,18,01,32,1.40
2006,02,18,01,33,1.40
2006,02,18,01,34,1.40
2006,02,18,01,35,1.40
2006,02,18,01,36,1.40
2006,02,18,01,37,1.40
2006,02,18,01,38,1.40
2006,02,18,01,39,1.50
2006,02,18,01,40,1.50
2006,02,18,01,41,1.50
2006,02,18,01,42,1.40
2006,02,18,01,43,1.40
2006,02,18,01,44,1.40
2006,02,18,01,45,1.40
2006,02,18,01,46,1.40
2006,02,18,01,47,1.40
2006,02,18,01,48,1.40
2006,02,18,01,49,1.40
2006,02,18,01,50,1.40
2006,02,18,01,51,1.40
2006,02,18,01,52,1.40
2006,02,18,01,53,1.40
2006,02,18,01,54,1.40
2006,02,18,01,55,1.40
2006,02,18,01,56,1.40
2006,02,18,01,57,1.40
2006,02,18,01,58,1.40
2006,02,18,01,59,1.40
2006,02,18,02,00,1.40
2006,02,18,02,01,1.50
2006,02,18,02,02,1.50
2006,02,18,02,03,1.50
2006,02,18,02,04,1.50
2006,02,18,02,05,1.40
2006,02,18,02,06,1.40
2006,02,18,02,07,1.40
2006,02,18,02,08,1.50
2006,02,18,02,09,1.50
2006,02,18,02,10,1.50
2006,02,18,02,11,1.40
2006,02,18,02,12,1.50
2006,02,18,02,13,1.50
2006,02,18,02,14,1.40
2006,02,18,02,15,1.40
2006,02,18,02,16,1.40
2006,02,18,02,17,1.40
2006,02,18,02,18,1.40
2006,02,18,02,19,1.40
2006,02,18,02,20,1.40
2006,02,18,02,21,1.40
2006,02,18,02,22,1.40
2006,02,18,02,23,1.40
2006,02,18,02,24,1.40
2006,02,18,02,25,1.40
2006,02,18,02,26,1.50
2006,02,18,02,27,1.50
2006,02,18,02,28,1.40
2006,02,18,02,29,1.40
2006,02,18,02,30,1.40
2006,02,18,02,31,1.40
2006,02,18,02,32,1.40
2006,02,18,02,33,1.40
2006,02,18,02,34,1.50
2006,02,18,02,35,1.50
2006,02,18,02,36,1.40
2006,02,18,02,37,1.50
2006,02,18,02,38,1.50
2006,02,18,02,39,1.50
2006,02,18,02,40,1.50
2006,02,18,02,41,1.40
2006,02,18,02,42,1.50
2006,02,18,02,43,1.50
2006,02,18,02,44,1.40
2006,02,18,02,45,1.40
2006,02,18,02,46,1.40
2006,02,18,02,47,1.40
2006,02,18,02,48,1.30
2006,02,18,02,49,1.30
2006,02,18,02,50,1.30
2006,02,18,02,51,1.30
2006,02,18,02,52,1.30
2006,02,18,02,53,1.30
2006,02,18,02,54,1.30
2006,02,18,02,55,1.30
2006,02,18,02,56,1.30
2006,02,18,02,57,1.30
2006,02,18,02,58,1.30
2006,02,18,02,59,1.30
2006,02,18,03,00,1.30
2006,02,18,03,01,1.30
2006,02,18,03,02,1.30
2006,02,18,03,03,1.30
2006,02,18,03,04,1.30
2006,02,18,03,05,1.30
2006,02,18,03,06,1.30
2006,02,18,03,07,1.30
2006,02,18,03,08,1.30
2006,02,18,03,09,1.30
2006,02,18,03,10,1.20
2006,02,18,03,11,1.20
2006,02,18,03,12,1.20
2006,02,18,03,13,1.20
2006,02,18,03,14,1.20
2006,02,18,03,15,1.20
2006,02,18,03,16,1.20
2006,02,18,03,17,1.20
2006,02,18,03,18,1.20
2006,02,18,03,19,1.20
2006,02,18,03,20,1.20
2006,02,18,03,21,1.20
2006,02,18,03,22,1.20
2006,02,18,03,23,1.20
2006,02,18,03,24,1.20
2006,02,18,03,25,1.20
2006,02,18,03,26,1.20
2006,02,18,03,27,1.20
2006,02,18,03,28,1.20
2006,02,18,03,45,1.00
2006,02,18,03,46,1.00
2006,02,18,03,47,1.00
2006,02,18,03,48,1.00
2006,02,18,03,49,1.00
2006,02,18,03,50,1.00
2006,02,18,03,51,1.00
2006,02,18,03,52,1.00
2006,02,18,03,53,1.00
2006,02,18,03,54,1.00
2006,02,18,03,55,1.00
2006,02,18,03,56,0.90
2006,02,18,03,57,1.00
2006,02,18,03,58,1.00
2006,02,18,03,59,1.00
2006,02,18,04,00,1.00
2006,02,18,04,01,1.00
2006,02,18,04,02,1.00
2006,02,18,04,03,1.00
2006,02,18,04,04,1.00
2006,02,18,04,05,1.00
2006,02,18,04,06,1.00
2006,02,18,04,07,0.90
2006,02,18,04,08,0.90
2006,02,18,04,09,0.90
2006,02,18,04,10,0.90
2006,02,18,04,11,0.90
2006,02,18,04,12,0.90
2006,02,18,04,13,0.90
2006,02,18,04,14,0.90
2006,02,18,04,15,0.90
2006,02,18,04,16,0.90
2006,02,18,04,17,0.90
2006,02,18,04,18,0.90
2006,02,18,04,19,0.90
2006,02,18,04,20,0.90
2006,02,18,04,21,0.90
2006,02,18,04,22,0.90
2006,02,18,04,23,0.90
2006,02,18,04,24,0.90
2006,02,18,04,25,0.90
2006,02,18,04,26,0.90
2006,02,18,04,27,0.90
2006,02,18,04,28,0.90
2006,02,18,04,29,0.90
2006,02,18,04,30,0.90
2006,02,18,04,31,0.90
2006,02,18,04,32,0.90
2006,02,18,04,33,0.90
2006,02,18,04,34,0.90
2006,02,18,04,35,0.90
2006,02,18,04,36,1.00
2006,02,18,04,37,1.00
2006,02,18,04,38,1.00
2006,02,18,04,39,1.00
2006,02,18,04,40,1.00
2006,02,18,04,41,1.00
2006,02,18,04,42,0.90
2006,02,18,04,43,0.90
2006,02,18,04,44,0.90
2006,02,18,04,45,0.90
2006,02,18,04,46,0.90
2006,02,18,04,47,0.90
2006,02,18,04,48,0.90
2006,02,18,04,49,0.90
2006,02,18,04,50,0.90
2006,02,18,04,51,0.90
2006,02,18,04,52,0.90
2006,02,18,04,53,0.90
2006,02,18,04,54,0.90
2006,02,18,04,55,1.00
2006,02,18,04,56,1.00
2006,02,18,04,57,1.00
2006,02,18,04,58,1.00
2006,02,18,04,59,1.00
2006,02,18,05,00,1.00
2006,02,18,05,01,1.00
2006,02,18,05,02,1.10
2006,02,18,05,03,1.10
2006,02,18,05,04,1.10
2006,02,18,05,05,1.20
2006,02,18,05,06,1.20
2006,02,18,05,07,1.20
2006,02,18,05,08,1.20
2006,02,18,05,09,1.20
2006,02,18,05,10,1.20
2006,02,18,05,11,1.20
2006,02,18,05,12,1.10
2006,02,18,05,13,1.10
2006,02,18,05,14,1.10
2006,02,18,05,15,1.10
2006,02,18,05,16,1.10
2006,02,18,05,17,1.10
2006,02,18,05,18,1.10
2006,02,18,05,19,1.10
2006,02,18,05,20,1.10
2006,02,18,05,21,1.10
2006,02,18,05,22,1.10
2006,02,18,05,23,1.10
2006,02,18,05,24,1.10
2006,02,18,05,25,1.10
2006,02,18,05,26,1.10
2006,02,18,05,27,1.00
2006,02,18,05,28,1.00
2006,02,18,05,29,1.00
2006,02,18,05,30,1.00
2006,02,18,05,31,1.00
2006,02,18,05,32,1.00
2006,02,18,05,33,1.00
2006,02,18,05,34,0.90
2006,02,18,05,35,0.90
2006,02,18,05,36,0.90
2006,02,18,05,37,0.90
2006,02,18,05,38,0.90
2006,02,18,05,39,0.90
2006,02,18,05,40,0.90
2006,02,18,05,41,0.90
2006,02,18,05,42,0.90
2006,02,18,05,43,0.90
2006,02,18,05,44,0.90
2006,02,18,05,45,0.90
2006,02,18,05,46,0.90
2006,02,18,05,47,0.90
2006,02,18,05,48,0.90
2006,02,18,05,49,0.90
2006,02,18,05,50,0.90
2006,02,18,05,51,0.90
2006,02,18,06,24,0.80
2006,02,18,06,25,0.80
2006,02,18,06,26,0.80
2006,02,18,06,27,0.80
2006,02,18,06,28,0.80
2006,02,18,06,29,0.80
2006,02,18,06,30,0.80
2006,02,18,06,31,0.80
2006,02,18,06,32,0.80
2006,02,18,06,33,0.80
2006,02,18,06,34,0.80
2006,02,18,06,35,0.80
2006,02,18,06,36,0.80
2006,02,18,06,37,0.80
2006,02,18,06,38,0.70
2006,02,18,06,39,0.70
2006,02,18,06,40,0.70
2006,02,18,06,41,0.70
2006,02,18,06,42,0.70
2006,02,18,06,43,0.70
2006,02,18,06,44,0.70
2006,02,18,06,45,0.60
2006,02,18,06,46,0.60
2006,02,18,06,47,0.60
2006,02,18,06,48,0.60
2006,02,18,06,49,0.60
2006,02,18,06,50,0.60
2006,02,18,06,51,0.60
2006,02,18,06,52,0.60
2006,02,18,06,53,0.60
2006,02,18,06,54,0.50
2006,02,18,06,55,0.50
2006,02,18,06,56,0.50
2006,02,18,06,57,0.50
2006,02,18,06,58,0.50
2006,02,18,06,59,0.50
2006,02,18,07,00,0.50
2006,02,18,07,01,0.50
2006,02,18,07,02,0.50
2006,02,18,07,03,0.50
2006,02,18,07,04,0.50
2006,02,18,07,05,0.50
2006,02,18,07,06,0.50
2006,02,18,07,07,0.50
2006,02,18,07,08,0.50
2006,02,18,07,09,0.50
2006,02,18,07,10,0.60
2006,02,18,07,11,0.60
2006,02,18,07,12,0.60
2006,02,18,07,13,0.60
2006,02,18,07,14,0.60
2006,02,18,07,15,0.60
2006,02,18,07,16,0.60
2006,02,18,07,17,0.70
2006,02,18,07,18,0.70
2006,02,18,07,19,0.70
2006,02,18,07,20,0.70
2006,02,18,07,21,0.70
2006,02,18,07,22,0.70
2006,02,18,07,23,0.70
2006,02,18,07,24,0.70
2006,02,18,07,25,0.80
2006,02,18,07,26,0.80
2006,02,18,07,27,0.80
2006,02,18,07,28,0.80
2006,02,18,07,29,0.80
2006,02,18,07,30,0.80
2006,02,18,07,31,0.80
2006,02,18,07,32,0.80
2006,02,18,07,33,0.80
2006,02,18,07,34,0.80
2006,02,18,07,35,0.80
2006,02,18,07,36,0.80
2006,02,18,07,37,0.90
2006,02,18,07,38,0.90
2006,02,18,07,39,0.90
2006,02,18,07,40,0.90
2006,02,18,07,41,0.90
2006,02,18,07,42,0.90
2006,02,18,07,43,0.90
2006,02,18,07,44,0.90
2006,02,18,07,45,0.90
2006,02,18,07,46,0.90
2006,02,18,07,47,0.90
2006,02,18,07,48,0.90
2006,02,18,07,49,0.90
2006,02,18,07,50,1.00
2006,02,18,07,51,1.00
2006,02,18,07,52,1.00
2006,02,18,07,53,1.00
2006,02,18,07,54,1.00
2006,02,18,07,55,1.00
2006,02,18,07,56,1.00
2006,02,18,07,57,1.10
2006,02,18,07,58,1.10
2006,02,18,07,59,1.10
2006,02,18,08,00,1.10
2006,02,18,08,01,1.10
2006,02,18,08,02,1.10
2006,02,18,08,03,1.10
2006,02,18,08,04,1.10
2006,02,18,08,05,1.10
2006,02,18,08,06,1.10
2006,02,18,08,07,1.10
2006,02,18,08,08,1.10
2006,02,18,08,09,1.10
2006,02,18,08,10,1.10
2006,02,18,08,11,1.10
2006,02,18,08,12,1.10
2006,02,18,08,13,1.10
2006,02,18,08,28,1.30
2006,02,18,08,29,1.40
2006,02,18,08,30,1.40
2006,02,18,08,31,1.50
2006,02,18,08,32,1.50
2006,02,18,08,33,1.50
2006,02,18,08,34,1.60
2006,02,18,08,35,1.60
2006,02,18,08,36,1.70
2006,02,18,08,37,1.70
2006,02,18,08,38,1.80
2006,02,18,08,39,1.80
2006,02,18,08,40,1.80
2006,02,18,08,41,1.90
2006,02,18,08,42,1.90
2006,02,18,08,43,1.90
2006,02,18,08,44,2.00
2006,02,18,08,45,2.00
2006,02,18,08,46,2.00
2006,02,18,08,47,2.00
2006,02,18,08,48,2.00
2006,02,18,08,49,2.00
2006,02,18,08,50,2.00
2006,02,18,08,51,2.00
2006,02,18,08,52,2.00
2006,02,18,08,53,2.00
2006,02,18,08,54,2.00
2006,02,18,08,55,2.10
2006,02,18,08,56,2.10
2006,02,18,08,57,2.10
2006,02,18,08,58,2.10
2006,02,18,08,59,2.10
2006,02,18,09,00,2.10
2006,02,18,09,01,2.20
2006,02,18,09,02,2.20
2006,02,18,09,03,2.20
2006,02,18,09,04,2.20
2006,02,18,09,05,2.20
2006,02,18,09,06,2.20
2006,02,18,09,07,2.20
2006,02,18,09,08,2.20
2006,02,18,09,09,2.10
2006,02,18,09,10,2.10
2006,02,18,09,11,2.10
2006,02,18,09,12,2.20
2006,02,18,09,13,2.20
2006,02,18,09,14,2.20
2006,02,18,09,15,2.20
2006,02,18,09,16,2.20
2006,02,18,09,17,2.30
2006,02,18,09,18,2.30
2006,02,18,09,19,2.30
2006,02,18,09,20,2.30
2006,02,18,09,21,2.30
2006,02,18,09,22,2.30
2006,02,18,09,23,2.30
2006,02,18,09,24,2.30
2006,02,18,09,25,2.30
2006,02,18,09,26,2.30
2006,02,18,09,27,2.30
2006,02,18,09,28,2.30
2006,02,18,09,29,2.30
2006,02,18,09,30,2.40
2006,02,18,09,31,2.40
2006,02,18,09,32,2.50
2006,02,18,09,33,2.50
2006,02,18,09,34,2.50
2006,02,18,09,35,2.50
2006,02,18,09,36,2.40
2006,02,18,09,37,2.30
2006,02,18,09,38,2.30
2006,02,18,09,39,2.30
2006,02,18,09,40,2.20
2006,02,18,09,41,2.20
2006,02,18,09,42,2.30
2006,02,18,09,43,2.30
2006,02,18,09,44,2.20
2006,02,18,09,45,2.20
2006,02,18,09,46,2.30
2006,02,18,09,47,2.30
2006,02,18,09,48,2.30
2006,02,18,09,49,2.30
2006,02,18,09,50,2.30
2006,02,18,09,51,2.40
2006,02,18,09,52,2.40
2006,02,18,09,53,2.40
2006,02,18,09,54,2.40
2006,02,18,09,55,2.40
2006,02,18,09,56,2.40
2006,02,18,09,57,2.50
2006,02,18,09,58,2.50
2006,02,18,09,59,2.50
2006,02,18,10,00,2.60
2006,02,18,10,01,2.60
2006,02,18,10,02,2.70
2006,02,18,10,03,2.70
2006,02,18,10,04,2.70
2006,02,18,10,05,2.70
2006,02,18,10,06,2.70
2006,02,18,10,07,2.70
2006,02,18,10,08,2.70
2006,02,18,10,09,2.70
2006,02,18,10,10,2.80
2006,02,18,10,11,2.90
2006,02,18,10,12,2.90
2006,02,18,10,13,2.90
2006,02,18,10,14,2.90
2006,02,18,10,15,2.90
2006,02,18,10,16,2.90
2006,02,18,10,17,2.90
2006,02,18,10,18,2.90
2006,02,18,10,19,2.90
2006,02,18,10,20,2.90
2006,02,18,10,21,2.90
2006,02,18,10,22,2.90
2006,02,18,10,23,2.90
2006,02,18,10,24,2.90
2006,02,18,10,25,2.90
2006,02,18,10,26,2.90
2006,02,18,10,27,2.90
2006,02,18,10,28,2.90
2006,02,18,10,29,2.90
2006,02,18,10,30,2.90
2006,02,18,10,31,2.90
2006,02,18,10,32,2.90
2006,02,18,10,33,2.90
2006,02,18,10,34,2.90
2006,02,18,10,35,2.90
2006,02,18,10,36,3.00
2006,02,18,10,37,3.10
2006,02,18,10,38,3.10
2006,02,18,10,39,3.10
2006,02,18,10,40,3.10
2006,02,18,10,41,3.10
2006,02,18,10,42,3.10
2006,02,18,10,43,3.10
2006,02,18,10,44,3.00
2006,02,18,10,45,3.00
2006,02,18,10,46,3.10
2006,02,18,10,47,3.10
2006,02,18,10,48,3.10
2006,02,18,10,49,3.10
2006,02,18,10,50,3.10
2006,02,18,10,51,3.10
2006,02,18,10,52,3.10
2006,02,18,10,53,3.10
2006,02,18,10,54,3.10
2006,02,18,10,55,3.20
2006,02,18,10,56,3.20
2006,02,18,10,57,3.20
2006,02,18,10,58,3.20
2006,02,18,10,59,3.30
2006,02,18,11,00,3.30
2006,02,18,11,01,3.40
2006,02,18,11,02,3.40
2006,02,18,11,03,3.40
2006,02,18,11,04,3.40
2006,02,18,11,05,3.40
2006,02,18,11,06,3.40
2006,02,18,11,07,3.50
2006,02,18,11,08,3.50
2006,02,18,11,09,3.50
2006,02,18,11,10,3.50
2006,02,18,11,11,3.60
2006,02,18,11,12,3.60
2006,02,18,11,13,3.50
2006,02,18,11,14,3.50
2006,02,18,11,15,3.60
2006,02,18,11,16,3.60
2006,02,18,11,17,3.70
2006,02,18,11,18,3.70
2006,02,18,11,19,3.70
2006,02,18,11,20,3.80
2006,02,18,11,21,3.80
2006,02,18,11,22,3.90
2006,02,18,11,23,3.90
2006,02,18,11,24,3.90
2006,02,18,11,25,3.90
2006,02,18,11,26,4.00
2006,02,18,11,27,4.00
2006,02,18,11,28,4.00
2006,02,18,11,29,3.90
2006,02,18,11,30,3.80
2006,02,18,11,31,3.80
2006,02,18,11,32,3.80
2006,02,18,11,33,3.80
2006,02,18,11,34,3.90
2006,02,18,11,35,3.90
2006,02,18,11,36,3.90
2006,02,18,11,37,3.90
2006,02,18,11,38,3.90
2006,02,18,11,39,3.90
2006,02,18,11,40,4.00
2006,02,18,11,41,4.00
2006,02,18,11,42,4.00
2006,02,18,11,43,4.10
2006,02,18,11,44,4.20
2006,02,18,11,45,4.10
2006,02,18,11,46,4.10
2006,02,18,11,47,4.10
2006,02,18,11,48,4.10
2006,02,18,11,49,4.10
2006,02,18,11,50,4.00
2006,02,18,11,51,3.90
2006,02,18,11,52,4.00
2006,02,18,11,53,4.00
2006,02,18,11,54,4.00
2006,02,18,11,55,4.00
2006,02,18,11,56,4.00
2006,02,18,11,57,4.00
2006,02,18,11,58,4.00
2006,02,18,11,59,4.20
2006,02,18,12,00,4.20
2006,02,18,12,01,4.20
2006,02,18,12,02,4.20
2006,02,18,12,03,4.10
2006,02,18,12,04,4.10
2006,02,18,12,05,4.00
2006,02,18,12,06,4.10
2006,02,18,12,07,4.00
2006,02,18,12,08,4.00
2006,02,18,12,09,4.00
2006,02,18,12,10,4.00
2006,02,18,12,11,4.00
2006,02,18,12,12,4.00
2006,02,18,12,13,3.90
2006,02,18,12,14,3.90
2006,02,18,12,15,4.00
2006,02,18,12,16,4.00
2006,02,18,12,17,4.10
2006,02,18,12,18,4.10
2006,02,18,12,19,4.10
2006,02,18,12,20,4.20
2006,02,18,12,21,4.20
2006,02,18,12,22,4.20
2006,02,18,12,23,4.20
2006,02,18,12,24,4.30
2006,02,18,12,25,4.20
2006,02,18,12,26,4.20
2006,02,18,12,27,4.20
2006,02,18,12,28,4.20
2006,02,18,12,29,4.20
2006,02,18,12,30,4.20
2006,02,18,12,31,4.20
2006,02,18,12,32,4.20
2006,02,18,12,33,4.20
2006,02,18,12,34,4.20
2006,02,18,12,35,4.20
2006,02,18,12,36,4.20
2006,02,18,12,37,4.20
2006,02,18,12,38,4.20
2006,02,18,12,39,4.30
2006,02,18,12,40,4.30
2006,02,18,12,41,4.30
2006,02,18,12,42,4.30
2006,02,18,12,43,4.40
2006,02,18,12,44,4.50
2006,02,18,12,45,4.50
2006,02,18,12,46,4.50
2006,02,18,12,47,4.50
2006,02,18,12,48,4.50
2006,02,18,12,49,4.40
2006,02,18,12,50,4.40
2006,02,18,12,51,4.40
2006,02,18,12,52,4.50
2006,02,18,12,53,4.50
2006,02,18,12,54,4.50
2006,02,18,12,55,4.40
2006,02,18,12,56,4.40
2006,02,18,12,57,4.50
2006,02,18,12,58,4.50
2006,02,18,12,59,4.40
2006,02,18,13,00,4.50
2006,02,18,13,01,4.50
2006,02,18,13,02,4.50
2006,02,18,13,03,4.60
2006,02,18,13,04,4.60
2006,02,18,13,05,4.60
2006,02,18,13,06,4.60
2006,02,18,13,07,4.60
2006,02,18,13,08,4.50
2006,02,18,13,09,4.50
2006,02,18,13,10,4.50
2006,02,18,13,11,4.60
2006,02,18,13,12,4.60
2006,02,18,13,13,4.70
2006,02,18,13,14,4.70
2006,02,18,13,15,4.70
2006,02,18,13,16,4.60
2006,02,18,13,17,4.60
2006,02,18,13,18,4.50
2006,02,18,13,19,4.50
2006,02,18,13,20,4.40
2006,02,18,13,21,4.50
2006,02,18,13,22,4.50
2006,02,18,13,23,4.50
2006,02,18,13,24,4.50
2006,02,18,13,25,4.50
2006,02,18,13,26,4.50
2006,02,18,13,27,4.50
2006,02,18,13,28,4.50
2006,02,18,13,29,4.50
2006,02,18,13,30,4.40
2006,02,18,13,31,4.40
2006,02,18,13,32,4.40
2006,02,18,13,33,4.40
2006,02,18,13,34,4.40
2006,02,18,13,35,4.30
2006,02,18,13,36,4.40
2006,02,18,13,37,4.50
2006,02,18,13,38,4.50
2006,02,18,13,39,4.50
2006,02,18,13,40,4.50
2006,02,18,13,41,4.50
2006,02,18,13,42,4.60
2006,02,18,13,43,4.60
2006,02,18,13,44,4.60
2006,02,18,13,45,4.60
2006,02,18,13,46,4.60
2006,02,18,13,47,4.50
2006,02,18,13,48,4.50
2006,02,18,13,49,4.50
2006,02,18,13,50,4.60
2006,02,18,13,51,4.60
2006,02,18,13,52,4.60
2006,02,18,13,53,4.50
2006,02,18,13,54,4.50
2006,02,18,13,55,4.50
2006,02,18,13,56,4.50
2006,02,18,13,57,4.50
2006,02,18,13,58,4.50
2006,02,18,13,59,4.50
2006,02,18,14,00,4.50
2006,02,18,14,01,4.60
2006,02,18,14,02,4.60
2006,02,18,14,03,4.60
2006,02,18,14,04,4.60
2006,02,18,14,05,4.60
2006,02,18,14,06,4.60
2006,02,18,14,07,4.60
2006,02,18,14,08,4.60
2006,02,18,14,09,4.60
2006,02,18,14,10,4.60
2006,02,18,14,11,4.70
2006,02,18,14,12,4.70
2006,02,18,14,13,4.70
2006,02,18,14,14,4.80
2006,02,18,14,15,4.80
2006,02,18,14,16,4.90
2006,02,18,14,17,4.90
2006,02,18,14,18,4.90
2006,02,18,14,19,4.90
2006,02,18,14,20,4.90
2006,02,18,14,21,4.80
2006,02,18,14,22,4.80
2006,02,18,14,23,4.80
2006,02,18,14,24,4.90
2006,02,18,14,25,4.90
2006,02,18,14,26,4.90
2006,02,18,14,27,4.80
2006,02,18,14,28,4.80
2006,02,18,14,29,4.80
2006,02,18,14,30,4.70
2006,02,18,14,31,4.70
2006,02,18,14,32,4.70
2006,02,18,14,33,4.60
2006,02,18,14,34,4.60
2006,02,18,14,35,4.70
2006,02,18,14,36,4.60
2006,02,18,14,37,4.60
2006,02,18,14,38,4.70
2006,02,18,14,39,4.80
2006,02,18,14,40,4.70
2006,02,18,14,41,4.70
2006,02,18,14,42,4.70
2006,02,18,14,43,4.70
2006,02,18,14,44,4.70
2006,02,18,14,45,4.70
2006,02,18,14,46,4.70
2006,02,18,14,47,4.80
2006,02,18,14,48,4.80
2006,02,18,14,49,4.80
2006,02,18,14,50,4.70
2006,02,18,14,51,4.70
2006,02,18,14,52,4.70
2006,02,18,14,53,4.70
2006,02,18,14,54,4.80
2006,02,18,14,55,4.80
2006,02,18,14,56,4.70
2006,02,18,14,57,4.80
2006,02,18,14,58,4.80
2006,02,18,14,59,4.90
2006,02,18,15,00,4.90
2006,02,18,15,01,5.00
2006,02,18,15,02,5.10
2006,02,18,15,03,5.00
2006,02,18,15,04,4.90
2006,02,18,15,05,4.90
2006,02,18,15,06,4.90
2006,02,18,15,07,4.80
2006,02,18,15,08,4.80
2006,02,18,15,09,4.80
2006,02,18,15,10,4.80
2006,02,18,15,11,4.90
2006,02,18,15,12,4.90
2006,02,18,15,13,5.00
2006,02,18,15,14,5.10
2006,02,18,15,15,5.10
2006,02,18,15,16,4.90
2006,02,18,15,17,4.90
2006,02,18,15,18,4.90
2006,02,18,15,19,4.90
2006,02,18,15,20,4.90
2006,02,18,15,21,4.90
2006,02,18,15,22,4.90
2006,02,18,15,23,4.90
2006,02,18,15,24,4.90
2006,02,18,15,25,4.90
2006,02,18,15,26,4.90
2006,02,18,15,27,4.90
2006,02,18,15,28,4.90
2006,02,18,15,29,4.90
2006,02,18,15,30,4.90
2006,02,18,15,31,5.00
2006,02,18,15,32,5.10
2006,02,18,15,33,5.10
2006,02,18,15,34,5.10
2006,02,18,15,35,5.10
2006,02,18,15,36,5.10
2006,02,18,15,37,5.00
2006,02,18,15,38,4.90
2006,02,18,15,39,4.90
2006,02,18,15,40,4.90
2006,02,18,15,41,5.00
2006,02,18,15,42,5.10
2006,02,18,15,43,5.10
2006,02,18,15,44,5.10
2006,02,18,15,45,5.10
2006,02,18,15,46,5.00
2006,02,18,15,47,4.90
2006,02,18,15,48,4.90
2006,02,18,15,49,4.90
2006,02,18,15,50,4.90
2006,02,18,15,51,4.90
2006,02,18,15,52,4.80
2006,02,18,15,53,4.80
2006,02,18,15,54,4.90
2006,02,18,15,55,4.90
2006,02,18,15,56,4.90
2006,02,18,15,57,5.00
2006,02,18,15,58,5.10
2006,02,18,15,59,5.10
2006,02,18,16,00,5.10
2006,02,18,16,01,5.10
2006,02,18,16,02,5.10
2006,02,18,16,03,5.10
2006,02,18,16,04,5.10
2006,02,18,16,05,5.10
2006,02,18,16,06,5.10
2006,02,18,16,07,5.10
2006,02,18,16,08,5.10
2006,02,18,16,09,5.10
2006,02,18,16,10,5.10
2006,02,18,16,11,5.10
2006,02,18,16,12,5.10
2006,02,18,16,13,5.10
2006,02,18,16,14,5.10
2006,02,18,16,15,5.10
2006,02,18,16,16,5.10
2006,02,18,16,17,5.10
2006,02,18,16,18,5.10
2006,02,18,16,19,5.10
2006,02,18,16,20,5.10
2006,02,18,16,21,5.10
2006,02,18,16,22,5.10
2006,02,18,16,23,5.00
2006,02,18,16,24,4.90
2006,02,18,16,25,4.90
2006,02,18,16,26,4.90
2006,02,18,16,27,4.90
2006,02,18,16,28,4.90
2006,02,18,16,29,4.90
2006,02,18,16,30,4.90
2006,02,18,16,31,4.90
2006,02,18,16,32,4.80
2006,02,18,16,33,4.80
2006,02,18,16,34,4.80
2006,02,18,16,35,4.80
2006,02,18,16,36,4.80
2006,02,18,16,37,4.90
2006,02,18,16,38,4.90
2006,02,18,16,39,4.90
2006,02,18,16,40,4.90
2006,02,18,16,41,4.90
2006,02,18,16,42,4.90
2006,02,18,16,43,4.90
2006,02,18,16,44,4.80
2006,02,18,16,45,4.80
2006,02,18,16,46,4.80
2006,02,18,16,47,4.80
2006,02,18,16,48,4.70
2006,02,18,16,49,4.70
2006,02,18,16,50,4.70
2006,02,18,16,51,4.70
2006,02,18,16,52,4.70
2006,02,18,16,53,4.70
2006,02,18,16,54,4.70
2006,02,18,16,55,4.70
2006,02,18,16,56,4.70
2006,02,18,16,57,4.70
2006,02,18,16,58,4.70
2006,02,18,16,59,4.60
2006,02,18,17,00,4.60
2006,02,18,17,01,4.60
2006,02,18,17,02,4.60
2006,02,18,17,03,4.60
2006,02,18,17,04,4.50
2006,02,18,17,05,4.50
2006,02,18,17,06,4.50
2006,02,18,17,07,4.50
2006,02,18,17,08,4.50
2006,02,18,17,09,4.50
2006,02,18,17,10,4.50
2006,02,18,17,11,4.50
2006,02,18,17,12,4.40
2006,02,18,17,13,4.40
2006,02,18,17,14,4.40
2006,02,18,17,15,4.40
2006,02,18,17,16,4.40
2006,02,18,17,17,4.40
2006,02,18,17,18,4.30
2006,02,18,17,19,4.30
2006,02,18,17,20,4.30
2006,02,18,17,21,4.20
2006,02,18,17,22,4.20
2006,02,18,17,23,4.20
2006,02,18,17,24,4.20
2006,02,18,17,25,4.20
2006,02,18,17,26,4.20
2006,02,18,17,27,4.20
2006,02,18,17,28,4.10
2006,02,18,17,29,4.10
2006,02,18,17,30,4.10
2006,02,18,17,31,4.10
2006,02,18,17,32,4.10
2006,02,18,17,33,4.10
2006,02,18,17,34,4.10
2006,02,18,17,35,4.10
2006,02,18,17,36,4.10
2006,02,18,17,37,4.10
2006,02,18,17,38,4.10
2006,02,18,17,39,4.10
2006,02,18,17,40,4.10
2006,02,18,17,41,4.10
2006,02,18,18,13,3.10
2006,02,18,18,14,3.10
2006,02,18,18,15,3.10
2006,02,18,18,16,3.10
2006,02,18,18,17,3.10
2006,02,18,18,18,3.00
2006,02,18,18,19,2.90
2006,02,18,18,20,2.90
2006,02,18,18,21,2.90
2006,02,18,18,22,2.90
2006,02,18,18,23,2.90
2006,02,18,18,24,2.80
2006,02,18,18,25,2.80
2006,02,18,18,26,2.80
2006,02,18,18,27,2.80
2006,02,18,18,28,2.70
2006,02,18,18,29,2.70
2006,02,18,18,30,2.70
2006,02,18,18,31,2.70
2006,02,18,18,32,2.70
2006,02,18,18,33,2.70
2006,02,18,18,34,2.70
2006,02,18,18,35,2.70
2006,02,18,18,36,2.70
2006,02,18,18,37,2.70
2006,02,18,18,38,2.70
2006,02,18,18,39,2.70
2006,02,18,18,40,2.70
2006,02,18,18,41,2.70
2006,02,18,18,42,2.60
2006,02,18,18,43,2.60
2006,02,18,18,44,2.60
2006,02,18,18,45,2.60
2006,02,18,18,46,2.60
2006,02,18,18,47,2.60
2006,02,18,18,48,2.60
2006,02,18,18,49,2.60
2006,02,18,18,50,2.50
2006,02,18,18,51,2.50
2006,02,18,18,52,2.50
2006,02,18,18,53,2.50
2006,02,18,18,54,2.50
2006,02,18,18,55,2.50
2006,02,18,18,56,2.50
2006,02,18,18,57,2.50
2006,02,18,18,58,2.40
2006,02,18,18,59,2.40
2006,02,18,19,00,2.40
2006,02,18,19,01,2.40
2006,02,18,19,02,2.40
2006,02,18,19,03,2.40
2006,02,18,19,04,2.40
2006,02,18,19,05,2.30
2006,02,18,19,06,2.30
2006,02,18,19,07,2.30
2006,02,18,19,08,2.30
2006,02,18,19,09,2.30
2006,02,18,19,10,2.30
2006,02,18,19,11,2.30
2006,02,18,19,12,2.30
2006,02,18,19,13,2.30
2006,02,18,19,14,2.30
2006,02,18,19,15,2.20
2006,02,18,19,16,2.20
2006,02,18,19,17,2.20
2006,02,18,19,18,2.20
2006,02,18,19,19,2.20
2006,02,18,19,20,2.20
2006,02,18,19,21,2.20
2006,02,18,19,22,2.10
2006,02,18,19,23,2.10
2006,02,18,19,24,2.10
2006,02,18,19,25,2.10
2006,02,18,19,26,2.10
2006,02,18,19,27,2.10
2006,02,18,19,28,2.00
2006,02,18,19,29,2.00
2006,02,18,19,30,2.00
2006,02,18,19,31,2.00
2006,02,18,19,32,1.90
2006,02,18,19,33,1.90
2006,02,18,19,34,1.90
2006,02,18,19,35,1.90
2006,02,18,19,36,1.80
2006,02,18,19,37,1.80
2006,02,18,19,38,1.70
2006,02,18,19,39,1.60
2006,02,18,19,40,1.50
2006,02,18,19,41,1.40
2006,02,18,19,42,1.30
2006,02,18,19,43,1.20
2006,02,18,19,44,1.20
2006,02,18,19,45,1.10
2006,02,18,19,46,1.10
2006,02,18,19,47,1.00
2006,02,18,19,48,1.00
2006,02,18,19,49,0.90
2006,02,18,19,50,0.90
2006,02,18,19,51,0.90
2006,02,18,19,52,0.80
2006,02,18,19,53,0.80
2006,02,18,19,54,0.80
2006,02,18,19,55,0.80
2006,02,18,19,56,0.80
2006,02,18,19,57,0.80
2006,02,18,19,58,0.80
2006,02,18,19,59,0.80
2006,02,18,20,00,0.80
2006,02,18,20,01,0.80
2006,02,18,20,02,0.80
2006,02,18,20,03,0.80
2006,02,18,20,19,0.70
2006,02,18,20,20,0.70
2006,02,18,20,21,0.70
2006,02,18,20,22,0.60
2006,02,18,20,23,0.60
2006,02,18,20,24,0.60
2006,02,18,20,25,0.60
2006,02,18,20,26,0.60